When you browse on this site, cookies collect data to enhance your experience and personalize the content and advertising you see.
Visit our Privacy Policy to learn more. By continuing to use the site, you agree to this use of cookies and data.
  • In Hungary
  • List of Countries
  • For 7 days
  • Water Temperature
  • Satellite Maps
  • Weather Map
  • News
  • Weather Widgets
  • user-avatar
    Login

    Hourly Weather Usmanovo

    Today, 19 November, Monday

    Time Temperature Precipitation Wind Pressure Humidity
    00:00 -3°C° 0 mm 2 mps 755 mmHg 64%
    01:00 -3°C° 0 mm 2 mps 756 mmHg 65%
    02:00 -3°C° 0 mm 2 mps 756 mmHg 65%
    03:00 -3°C° 0 mm 2 mps 756 mmHg 66%
    04:00 -3°C° 0 mm 2 mps 756 mmHg 66%
    05:00 -3°C° 0 mm 2 mps 756 mmHg 66%
    06:00 -3°C° 0 mm 2 mps 756 mmHg 67%
    07:00 -3°C° 0 mm 2 mps 756 mmHg 67%
    08:00 -3°C° 0 mm 2 mps 756 mmHg 67%
    09:00 -4°C° 0 mm 3 mps 756 mmHg 67%
    10:00 -4°C° 0 mm 3 mps 756 mmHg 67%
    11:00 -2°C° 0 mm 3 mps 756 mmHg 65%
    12:00 -2°C° 0 mm 3 mps 757 mmHg 64%
    13:00 -2°C° 0 mm 3 mps 757 mmHg 63%
    14:00 -2°C° 0 mm 2 mps 757 mmHg 63%
    15:00 -2°C° 0 mm 2 mps 757 mmHg 63%
    16:00 -2°C° 0 mm 2 mps 757 mmHg 63%
    17:00 -2°C° 0 mm 2 mps 757 mmHg 64%
    18:00 -3°C° 0 mm 2 mps 756 mmHg 65%
    19:00 -3°C° 0 mm 2 mps 756 mmHg 66%
    20:00 -3°C° 0.1 mm 2 mps 756 mmHg 70%
    21:00 -3°C° 0.1 mm 2 mps 756 mmHg 74%
    22:00 -3°C° 0.1 mm 2 mps 756 mmHg 77%
    23:00 -3°C° 0.1 mm 2 mps 756 mmHg 80%

    Tomorrow, 20 November, Tuesday

    Time Temperature Precipitation Wind Pressure Humidity
    00:00 -3°C° 0.1 mm 2 mps 756 mmHg 83%
    01:00 -3°C° 0.1 mm 2 mps 756 mmHg 86%
    02:00 -3°C° 0.1 mm 2 mps 755 mmHg 87%
    03:00 -3°C° 0.1 mm 2 mps 755 mmHg 89%
    04:00 -3°C° 0.1 mm 2 mps 755 mmHg 91%
    05:00 -3°C° 0.1 mm 2 mps 755 mmHg 91%
    06:00 -3°C° 0.1 mm 2 mps 755 mmHg 92%
    07:00 -3°C° 0.1 mm 2 mps 754 mmHg 93%
    08:00 -3°C° 0 mm 2 mps 754 mmHg 92%
    09:00 -3°C° 0 mm 2 mps 754 mmHg 91%
    10:00 -2°C° 0 mm 2 mps 754 mmHg 91%
    11:00 -2°C° 0 mm 2 mps 754 mmHg 89%
    12:00 -2°C° 0 mm 2 mps 754 mmHg 88%
    13:00 -1°C° 0 mm 2 mps 754 mmHg 87%
    14:00 -1°C° 0 mm 2 mps 753 mmHg 89%
    15:00 -2°C° 0 mm 2 mps 753 mmHg 90%
    16:00 -2°C° 0 mm 2 mps 753 mmHg 92%
    17:00 -2°C° 0 mm 2 mps 753 mmHg 93%
    18:00 -2°C° 0 mm 2 mps 753 mmHg 94%
    19:00 -2°C° 0 mm 2 mps 752 mmHg 94%
    20:00 -2°C° 0 mm 2 mps 752 mmHg 95%
    21:00 -3°C° 0 mm 2 mps 752 mmHg 95%
    22:00 -3°C° 0 mm 2 mps 752 mmHg 95%
    23:00 -3°C° 0 mm 2 mps 751 mmHg 95%

    Day after tomorrow, 21 November, Wednesday

    Time Temperature Precipitation Wind Pressure Humidity
    00:00 -3°C° 0 mm 2 mps 751 mmHg 95%
    01:00 -3°C° 0 mm 2 mps 751 mmHg 94%
    02:00 -3°C° 0 mm 2 mps 750 mmHg 93%
    03:00 -3°C° 0 mm 2 mps 750 mmHg 92%
    04:00 -3°C° 0 mm 2 mps 750 mmHg 91%
    05:00 -5°C° 0 mm 3 mps 749 mmHg 89%
    06:00 -5°C° 0 mm 3 mps 749 mmHg 88%
    07:00 -5°C° 0 mm 3 mps 748 mmHg 86%
    08:00 -5°C° 0 mm 4 mps 748 mmHg 84%
    09:00 -6°C° 0 mm 5 mps 747 mmHg 83%
    10:00 -6°C° 0 mm 6 mps 747 mmHg 81%
    11:00 -6°C° 0.3 mm 6 mps 746 mmHg 82%
    12:00 -6°C° 0.3 mm 6 mps 746 mmHg 84%
    13:00 -5°C° 0.3 mm 6 mps 745 mmHg 86%
    14:00 -5°C° 0.5 mm 6 mps 744 mmHg 87%
    15:00 -5°C° 0.5 mm 6 mps 744 mmHg 88%
    16:00 -5°C° 0.5 mm 6 mps 743 mmHg 90%
    17:00 -5°C° 0.2 mm 5 mps 743 mmHg 89%
    18:00 -5°C° 0.2 mm 5 mps 743 mmHg 88%
    19:00 -5°C° 0.2 mm 5 mps 743 mmHg 87%
    20:00 -5°C° 0 mm 5 mps 743 mmHg 88%
    21:00 -6°C° 0 mm 5 mps 742 mmHg 88%
    22:00 -6°C° 0 mm 5 mps 742 mmHg 88%
    23:00 -5°C° 0.1 mm 4 mps 742 mmHg 89%

    22 November, Thursday

    Time Temperature Precipitation Wind Pressure Humidity
    00:00 -7°C° 0.1 mm 4 mps 743 mmHg 89%
    01:00 -8°C° 0.1 mm 4 mps 743 mmHg 89%
    02:00 -8°C° 0 mm 4 mps 743 mmHg 90%
    03:00 -8°C° 0 mm 4 mps 743 mmHg 90%
    04:00 -8°C° 0 mm 3 mps 743 mmHg 91%
    05:00 -8°C° 0 mm 3 mps 743 mmHg 92%
    06:00 -8°C° 0 mm 3 mps 743 mmHg 93%
    07:00 -8°C° 0 mm 2 mps 743 mmHg 94%
    08:00 -8°C° 0 mm 3 mps 743 mmHg 92%
    09:00 -8°C° 0 mm 3 mps 743 mmHg 90%
    10:00 -8°C° 0 mm 3 mps 743 mmHg 88%
    11:00 -8°C° 0 mm 3 mps 743 mmHg 86%
    12:00 -8°C° 0 mm 4 mps 742 mmHg 83%
    13:00 -8°C° 0 mm 5 mps 742 mmHg 80%
    14:00 -8°C° 0 mm 5 mps 741 mmHg 82%
    15:00 -8°C° 0 mm 5 mps 741 mmHg 83%
    16:00 -10°C° 0 mm 6 mps 740 mmHg 84%
    17:00 -9°C° 0.2 mm 6 mps 739 mmHg 85%
    18:00 -9°C° 0.2 mm 7 mps 739 mmHg 86%
    19:00 -9°C° 0.2 mm 7 mps 738 mmHg 87%
    20:00 -9°C° 0.3 mm 7 mps 738 mmHg 87%
    21:00 -9°C° 0.3 mm 7 mps 737 mmHg 88%
    22:00 -8°C° 0.3 mm 6 mps 737 mmHg 89%
    23:00 -9°C° 0.3 mm 6 mps 737 mmHg 88%

    23 November, Friday

    Time Temperature Precipitation Wind Pressure Humidity
    00:00 -10°C° 0.3 mm 6 mps 737 mmHg 87%
    01:00 -10°C° 0.3 mm 6 mps 737 mmHg 86%
    02:00 -11°C° 0 mm 6 mps 738 mmHg 84%
    03:00 -13°C° 0 mm 5 mps 739 mmHg 83%
    04:00 -14°C° 0 mm 5 mps 739 mmHg 82%
    05:00 -14°C° 0 mm 5 mps 740 mmHg 81%
    06:00 -15°C° 0 mm 4 mps 741 mmHg 81%
    07:00 -16°C° 0 mm 4 mps 742 mmHg 81%
    08:00 -15°C° 0 mm 4 mps 743 mmHg 80%
    09:00 -15°C° 0 mm 4 mps 743 mmHg 80%
    10:00 -15°C° 0 mm 4 mps 744 mmHg 79%
    11:00 -14°C° 0 mm 4 mps 744 mmHg 80%
    12:00 -14°C° 0 mm 4 mps 745 mmHg 81%
    13:00 -13°C° 0 mm 5 mps 745 mmHg 82%
    14:00 -12°C° 0 mm 4 mps 745 mmHg 84%
    15:00 -12°C° 0 mm 3 mps 746 mmHg 86%
    16:00 -12°C° 0 mm 3 mps 746 mmHg 88%
    17:00 -12°C° 0.1 mm 3 mps 747 mmHg 89%
    18:00 -12°C° 0.1 mm 3 mps 747 mmHg 90%
    19:00 -12°C° 0.1 mm 4 mps 748 mmHg 90%
    20:00 -12°C° 0.1 mm 4 mps 748 mmHg 89%
    21:00 -14°C° 0.1 mm 4 mps 749 mmHg 89%
    22:00 -14°C° 0.1 mm 4 mps 749 mmHg 88%
    23:00 -15°C° 0 mm 4 mps 750 mmHg 88%

    24 November, Saturday

    Time Temperature Precipitation Wind Pressure Humidity
    00:00 -15°C° 0 mm 4 mps 750 mmHg 88%
    01:00 -15°C° 0 mm 4 mps 750 mmHg 89%
    02:00 -15°C° 0 mm 4 mps 750 mmHg 89%
    03:00 -14°C° 0 mm 5 mps 750 mmHg 89%
    04:00 -13°C° 0 mm 5 mps 750 mmHg 89%
    05:00 -14°C° 0 mm 6 mps 749 mmHg 88%
    06:00 -14°C° 0 mm 6 mps 749 mmHg 86%
    07:00 -15°C° 0 mm 7 mps 749 mmHg 85%
    08:00 -14°C° 0 mm 7 mps 748 mmHg 83%
    09:00 -15°C° 0 mm 8 mps 748 mmHg 82%
    10:00 -14°C° 0 mm 9 mps 747 mmHg 80%
    11:00 -12°C° 0.1 mm 9 mps 747 mmHg 80%
    12:00 -11°C° 0.1 mm 9 mps 746 mmHg 81%
    13:00 -10°C° 0.1 mm 9 mps 746 mmHg 81%
    14:00 -10°C° 0.1 mm 9 mps 746 mmHg 81%
    15:00 -9°C° 0.1 mm 9 mps 746 mmHg 81%
    16:00 -8°C° 0.1 mm 8 mps 746 mmHg 82%
    17:00 -8°C° 0.1 mm 8 mps 746 mmHg 83%
    18:00 -8°C° 0.1 mm 8 mps 746 mmHg 84%
    19:00 -7°C° 0.1 mm 8 mps 746 mmHg 85%
    20:00 -7°C° 0 mm 7 mps 747 mmHg 86%
    21:00 -7°C° 0 mm 7 mps 747 mmHg 86%
    22:00 -7°C° 0 mm 7 mps 747 mmHg 87%
    23:00 -7°C° 0 mm 7 mps 747 mmHg 87%
    Show more